Flag for U.S.A. Weather past 2 weeks in Kansas City, Missouri, U.S.A.

Now
95 °F

Sunny.


Feels Like: 106 °F
Forecast: 73 / 88 °F
Wind: 7 mph from North

Location: Kansas City Downtown Airport

Current Time: Jul 22, 2014 at 9:13:11 PM

Latest Report: Jul 22, 2014 at 7:54 PM


Visibility: 10 mi

Pressure: 29.96 "Hg

Humidity: 51%

Dew point: 74 °F

Location of Kansas CityLocation

Historic Weather in Kansas City — Graph

°F

Kansas City temperature yesterday

Maximum temperature yesterday: 94 °F (at 3:54 PM)
Minimum temperature yesterday: 74 °F (at 4:54 AM)
Average temperature yesterday: 84 °F

Past Weeks' High & Low Weather Summary

 TemperatureHumidityPressure
High97 °F (Jul 22, 6:54 PM)93% (Jul 7, 11:02 PM)30.14 "Hg (Jul 7, 11:02 PM)
Low58 °F (Jul 15, 4:54 AM)40% (Jul 12, 4:54 PM)29.67 "Hg (Jul 7, 8:54 PM)
Average77 °F64%29.99 "Hg
* Reported Jul 7 7:54 PM — Jul 22 7:54 PM, Kansas City, Weather by CustomWeather, © 2014

Note: Actual official high and low records may vary slightly from our data, if they occured in-between our weather recording intervals... More about our weather records

Advertising

Kansas City weather history for previous 24 hours

 ConditionsComfort  
Time TempWeatherWind HumidityBarometerVisibility
7:54 PM
Jul 22
95 °FSunny.7 mph51%29.96 "Hg10 mi
6:54 PM97 °FSunny.6 mph46%29.94 "Hg10 mi
11:54 AM91 °FSunny.8 mph61%29.99 "Hg9 mi
10:54 AM88 °FHaze.7 mph65%30.00 "Hg4 mi
9:54 AM85 °FSunny.10 mph72%29.99 "Hg6 mi
8:54 AM82 °FSunny.6 mph77%30.00 "Hg7 mi
7:54 AM80 °FSunny.10 mph79%29.98 "Hg7 mi
6:54 AM79 °FClear.13 mph82%29.98 "Hg7 mi
5:54 AM79 °FClear.10 mph82%29.97 "Hg8 mi
4:54 AM79 °FClear.9 mph82%29.96 "Hg8 mi
3:54 AM80 °FClear.12 mph81%29.95 "Hg9 mi
2:54 AM81 °FClear.9 mph79%29.94 "Hg10 mi
1:54 AM82 °FClear.8 mph77%29.94 "Hg10 mi
12:54 AM83 °FClear.10 mph74%29.95 "Hg10 mi
11:54 PM
Jul 21
84 °FClear.8 mph70%29.94 "Hg10 mi
10:54 PM84 °FClear.7 mph72%29.94 "Hg10 mi
9:54 PM86 °FClear.9 mph70%29.93 "Hg10 mi
Weather by CustomWeather, © 2014

See weather overviewHow to use our weather pages